Time,TemperatureF,DewpointF,PressureIn,WindDirection,WindDirectionDegrees,WindSpeedMPH,WindSpeedGustMPH,Humidity,HourlyPrecipIn,Conditions,Clouds,dailyrainin,SoftwareType,DateUTC
2013-02-20 00:02:00,52.0,-99.9,30.03,West,268,6.0,10.0,-999,-99.99,,,-99.99,,2013-02-20 05:02:00,
2013-02-20 00:12:00,52.0,-99.9,30.03,West,270,6.0,12.0,-999,-99.99,,,-99.99,,2013-02-20 05:12:00,
2013-02-20 00:22:00,52.0,-99.9,30.03,West,271,7.0,11.0,-999,-99.99,,,-99.99,,2013-02-20 05:22:00,
2013-02-20 00:32:00,52.0,-99.9,30.03,West,276,6.0,10.0,-999,-99.99,,,-99.99,,2013-02-20 05:32:00,
2013-02-20 00:43:00,51.0,-99.9,30.04,West,278,5.0,13.0,-999,-99.99,,,-99.99,,2013-02-20 05:43:00,
2013-02-20 00:52:00,51.0,-99.9,30.04,WNW,283,4.0,11.0,-999,-99.99,,,-99.99,,2013-02-20 05:52:00,
2013-02-20 01:02:00,51.0,-99.9,30.04,West,271,4.0,8.0,-999,-99.99,,,-99.99,,2013-02-20 06:02:00,
2013-02-20 01:12:00,51.0,-99.9,30.04,West,264,4.0,9.0,-999,-99.99,,,-99.99,,2013-02-20 06:12:00,
2013-02-20 01:22:00,51.0,-99.9,30.05,West,266,4.0,10.0,-999,-99.99,,,-99.99,,2013-02-20 06:22:00,
2013-02-20 01:32:00,50.0,-99.9,30.05,WNW,285,4.0,8.0,-999,-99.99,,,-99.99,,2013-02-20 06:32:00,
2013-02-20 01:42:00,50.0,-99.9,30.05,WNW,286,5.0,8.0,-999,-99.99,,,-99.99,,2013-02-20 06:42:00,
2013-02-20 01:52:00,50.0,-99.9,30.05,WNW,286,5.0,8.0,-999,-99.99,,,-99.99,,2013-02-20 06:52:00,
2013-02-20 02:11:00,49.0,-99.9,30.05,West,280,5.0,9.0,-999,-99.99,,,-99.99,,2013-02-20 07:11:00,
2013-02-20 02:21:00,49.0,-99.9,30.05,West,268,4.0,9.0,-999,-99.99,,,-99.99,,2013-02-20 07:21:00,
2013-02-20 02:32:00,49.0,-99.9,30.05,WNW,284,5.0,8.0,-999,-99.99,,,-99.99,,2013-02-20 07:32:00,
2013-02-20 02:42:00,49.0,-99.9,30.05,West,278,5.0,8.0,-999,-99.99,,,-99.99,,2013-02-20 07:42:00,
2013-02-20 02:52:00,48.0,-99.9,30.05,WNW,283,6.0,9.0,-999,-99.99,,,-99.99,,2013-02-20 07:52:00,
2013-02-20 03:05:00,48.0,-99.9,30.05,WNW,282,6.0,12.0,-999,-99.99,,,-99.99,,2013-02-20 08:05:00,
2013-02-20 03:11:00,47.0,-99.9,30.06,West,281,6.0,12.0,-999,-99.99,,,-99.99,,2013-02-20 08:11:00,
2013-02-20 03:22:00,47.0,-99.9,30.06,WNW,294,4.0,9.0,-999,-99.99,,,-99.99,,2013-02-20 08:22:00,
2013-02-20 03:32:00,47.0,-99.9,30.06,WNW,294,6.0,8.0,-999,-99.99,,,-99.99,,2013-02-20 08:32:00,
2013-02-20 03:42:00,46.0,-99.9,30.06,WNW,299,6.0,10.0,-999,-99.99,,,-99.99,,2013-02-20 08:42:00,
2013-02-20 03:52:00,46.0,-99.9,30.05,WNW,299,4.0,8.0,-999,-99.99,,,-99.99,,2013-02-20 08:52:00,
2013-02-20 04:02:00,46.0,-99.9,30.06,WNW,289,5.0,12.0,-999,-99.99,,,-99.99,,2013-02-20 09:02:00,
2013-02-20 04:11:00,45.0,-99.9,30.06,West,277,6.0,9.0,-999,-99.99,,,-99.99,,2013-02-20 09:11:00,
2013-02-20 04:22:00,45.0,-99.9,30.06,WNW,294,5.0,10.0,-999,-99.99,,,-99.99,,2013-02-20 09:22:00,
2013-02-20 04:32:00,45.0,-99.9,30.06,WNW,285,5.0,10.0,-999,-99.99,,,-99.99,,2013-02-20 09:32:00,
2013-02-20 04:42:00,44.0,-99.9,30.07,WNW,286,6.0,11.0,-999,-99.99,,,-99.99,,2013-02-20 09:42:00,
2013-02-20 04:52:00,44.0,-99.9,30.07,West,281,4.0,9.0,-999,-99.99,,,-99.99,,2013-02-20 09:52:00,
2013-02-20 05:01:00,44.0,-99.9,30.07,West,270,5.0,10.0,-999,-99.99,,,-99.99,,2013-02-20 10:01:00,
2013-02-20 05:12:00,44.0,-99.9,30.07,WNW,289,6.0,8.0,-999,-99.99,,,-99.99,,2013-02-20 10:12:00,
2013-02-20 05:22:00,44.0,-99.9,30.07,WNW,287,5.0,9.0,-999,-99.99,,,-99.99,,2013-02-20 10:22:00,
2013-02-20 05:32:00,43.0,-99.9,30.07,WNW,285,4.0,8.0,-999,-99.99,,,-99.99,,2013-02-20 10:32:00,
2013-02-20 05:42:00,43.0,-99.9,30.08,West,272,4.0,6.0,-999,-99.99,,,-99.99,,2013-02-20 10:42:00,
2013-02-20 05:52:00,43.0,-99.9,30.08,West,273,4.0,6.0,-999,-99.99,,,-99.99,,2013-02-20 10:52:00,
2013-02-20 06:02:00,43.0,-99.9,30.08,WNW,291,5.0,9.0,-999,-99.99,,,-99.99,,2013-02-20 11:02:00,
2013-02-20 06:11:00,42.0,-99.9,30.09,WNW,289,4.0,7.0,-999,-99.99,,,-99.99,,2013-02-20 11:11:00,
2013-02-20 06:22:00,42.0,-99.9,30.09,WNW,298,3.0,6.0,-999,-99.99,,,-99.99,,2013-02-20 11:22:00,
2013-02-20 06:32:00,42.0,-99.9,30.09,West,281,3.0,6.0,-999,-99.99,,,-99.99,,2013-02-20 11:32:00,
2013-02-20 06:42:00,42.0,-99.9,30.09,WNW,283,2.0,6.0,-999,-99.99,,,-99.99,,2013-02-20 11:42:00,
2013-02-20 06:52:00,42.0,-99.9,30.10,WNW,284,3.0,7.0,-999,-99.99,,,-99.99,,2013-02-20 11:52:00,
2013-02-20 07:02:00,42.0,-99.9,30.10,West,273,4.0,6.0,-999,-99.99,,,-99.99,,2013-02-20 12:02:00,
2013-02-20 07:12:00,41.0,-99.9,30.10,West,276,3.0,5.0,-999,-99.99,,,-99.99,,2013-02-20 12:12:00,
2013-02-20 07:22:00,41.0,-99.9,30.10,WNW,299,4.0,6.0,-999,-99.99,,,-99.99,,2013-02-20 12:22:00,
2013-02-20 07:32:00,41.0,-99.9,30.11,WNW,288,3.0,6.0,-999,-99.99,,,-99.99,,2013-02-20 12:32:00,
2013-02-20 07:42:00,42.0,-99.9,30.12,West,270,2.0,4.0,-999,-99.99,,,-99.99,,2013-02-20 12:42:00,
2013-02-20 07:53:00,41.0,-99.9,30.13,SW,231,3.0,5.0,-999,-99.99,,,-99.99,,2013-02-20 12:53:00,
2013-02-20 08:02:00,41.0,-99.9,30.13,West,259,3.0,5.0,-999,-99.99,,,-99.99,,2013-02-20 13:02:00,
2013-02-20 08:12:00,42.0,-99.9,30.14,West,275,2.0,5.0,-999,-99.99,,,-99.99,,2013-02-20 13:12:00,
2013-02-20 08:22:00,42.0,-99.9,30.14,WNW,301,6.0,8.0,-999,-99.99,,,-99.99,,2013-02-20 13:22:00,
2013-02-20 08:32:00,43.0,-99.9,30.14,NW,315,4.0,9.0,-999,-99.99,,,-99.99,,2013-02-20 13:32:00,
2013-02-20 08:42:00,44.0,-99.9,30.14,NW,311,5.0,8.0,-999,-99.99,,,-99.99,,2013-02-20 13:42:00,
2013-02-20 09:01:00,45.0,-99.9,30.14,NW,312,5.0,11.0,-999,-99.99,,,-99.99,,2013-02-20 14:01:00,
2013-02-20 09:11:00,45.0,-99.9,30.15,NW,322,6.0,11.0,-999,-99.99,,,-99.99,,2013-02-20 14:11:00,
2013-02-20 09:22:00,45.0,-99.9,30.15,NW,313,5.0,11.0,-999,-99.99,,,-99.99,,2013-02-20 14:22:00,
2013-02-20 09:32:00,46.0,-99.9,30.15,NNW,330,5.0,10.0,-999,-99.99,,,-99.99,,2013-02-20 14:32:00,
2013-02-20 09:42:00,47.0,-99.9,30.15,NNW,342,5.0,7.0,-999,-99.99,,,-99.99,,2013-02-20 14:42:00,
2013-02-20 09:52:00,47.0,-99.9,30.15,NNW,346,7.0,10.0,-999,-99.99,,,-99.99,,2013-02-20 14:52:00,
2013-02-20 10:02:00,48.0,-99.9,30.15,NNW,335,7.0,11.0,-999,-99.99,,,-99.99,,2013-02-20 15:02:00,
2013-02-20 10:12:00,48.0,-99.9,30.15,NNW,342,4.0,8.0,-999,-99.99,,,-99.99,,2013-02-20 15:12:00,
2013-02-20 10:22:00,49.0,-99.9,30.14,NNW,346,6.0,9.0,-999,-99.99,,,-99.99,,2013-02-20 15:22:00,
2013-02-20 10:32:00,48.0,-99.9,30.14,NNW,335,6.0,10.0,-999,-99.99,,,-99.99,,2013-02-20 15:32:00,
2013-02-20 10:42:00,49.0,-99.9,30.14,NNW,338,5.0,9.0,-999,-99.99,,,-99.99,,2013-02-20 15:42:00,
2013-02-20 10:52:00,47.0,-99.9,30.14,North,7,6.0,8.0,-999,-99.99,,,-99.99,,2013-02-20 15:52:00,
2013-02-20 11:01:00,48.0,-99.9,30.14,North,3,5.0,8.0,-999,-99.99,,,-99.99,,2013-02-20 16:01:00,
2013-02-20 11:12:00,48.0,-99.9,30.14,North,4,5.0,8.0,-999,-99.99,,,-99.99,,2013-02-20 16:12:00,
2013-02-20 11:22:00,48.0,-99.9,30.14,NNE,14,7.0,9.0,-999,-99.99,,,-99.99,,2013-02-20 16:22:00,
2013-02-20 11:32:00,48.0,-99.9,30.14,NNE,19,6.0,9.0,-999,-99.99,,,-99.99,,2013-02-20 16:32:00,
2013-02-20 11:42:00,48.0,-99.9,30.14,NNE,23,5.0,9.0,-999,-99.99,,,-99.99,,2013-02-20 16:42:00,
2013-02-20 11:52:00,48.0,-99.9,30.14,NNE,15,7.0,8.0,-999,-99.99,,,-99.99,,2013-02-20 16:52:00,
2013-02-20 12:01:00,49.0,-99.9,30.13,North,9,7.0,9.0,-999,-99.99,,,-99.99,,2013-02-20 17:01:00,
2013-02-20 12:12:00,49.0,-99.9,30.13,NE,48,3.0,5.0,-999,-99.99,,,-99.99,,2013-02-20 17:12:00,
2013-02-20 12:22:00,50.0,-99.9,30.12,North,7,3.0,6.0,-999,-99.99,,,-99.99,,2013-02-20 17:22:00,
2013-02-20 12:32:00,50.0,-99.9,30.11,North,9,4.0,6.0,-999,-99.99,,,-99.99,,2013-02-20 17:32:00,
2013-02-20 12:42:00,50.0,-99.9,30.11,NNE,21,3.0,4.0,-999,-99.99,,,-99.99,,2013-02-20 17:42:00,
2013-02-20 12:52:00,50.0,-99.9,30.11,NNE,18,3.0,5.0,-999,-99.99,,,-99.99,,2013-02-20 17:52:00,
2013-02-20 13:02:00,51.0,-99.9,30.11,NNE,21,4.0,4.0,-999,-99.99,,,-99.99,,2013-02-20 18:02:00,
2013-02-20 13:11:00,51.0,-99.9,30.11,NE,43,4.0,5.0,-999,-99.99,,,-99.99,,2013-02-20 18:11:00,
2013-02-20 13:22:00,52.0,-99.9,30.09,East,100,2.0,3.0,-999,-99.99,,,-99.99,,2013-02-20 18:22:00,
2013-02-20 13:32:00,51.0,-99.9,30.09,SSE,167,5.0,7.0,-999,-99.99,,,-99.99,,2013-02-20 18:32:00,
2013-02-20 13:42:00,53.0,-99.9,30.08,ESE,103,1.0,4.0,-999,-99.99,,,-99.99,,2013-02-20 18:42:00,
2013-02-20 13:52:00,52.0,-99.9,30.08,SE,137,4.0,5.0,-999,-99.99,,,-99.99,,2013-02-20 18:52:00,
2013-02-20 14:02:00,52.0,-99.9,30.08,SE,137,4.0,5.0,-999,-99.99,,,-99.99,,2013-02-20 19:02:00,
2013-02-20 14:12:00,50.0,-99.9,30.07,ESE,112,11.0,13.0,-999,-99.99,,,-99.99,,2013-02-20 19:12:00,
2013-02-20 14:21:00,50.0,-99.9,30.07,ESE,119,11.0,13.0,-999,-99.99,,,-99.99,,2013-02-20 19:21:00,
2013-02-20 14:32:00,50.0,-99.9,30.06,ESE,118,11.0,13.0,-999,-99.99,,,-99.99,,2013-02-20 19:32:00,
2013-02-20 14:42:00,50.0,-99.9,30.06,ESE,122,10.0,12.0,-999,-99.99,,,-99.99,,2013-02-20 19:42:00,
2013-02-20 14:52:00,50.0,-99.9,30.06,ESE,123,11.0,13.0,-999,-99.99,,,-99.99,,2013-02-20 19:52:00,
2013-02-20 15:01:00,51.0,-99.9,30.06,SE,130,10.0,11.0,-999,-99.99,,,-99.99,,2013-02-20 20:01:00,
2013-02-20 15:11:00,51.0,-99.9,30.06,SE,139,8.0,11.0,-999,-99.99,,,-99.99,,2013-02-20 20:11:00,
2013-02-20 15:21:00,51.0,-99.9,30.06,SE,139,9.0,11.0,-999,-99.99,,,-99.99,,2013-02-20 20:21:00,
2013-02-20 15:31:00,52.0,-99.9,30.07,South,175,7.0,10.0,-999,-99.99,,,-99.99,,2013-02-20 20:31:00,
2013-02-20 15:41:00,52.0,-99.9,30.07,South,177,8.0,9.0,-999,-99.99,,,-99.99,,2013-02-20 20:41:00,
2013-02-20 15:52:00,52.0,-99.9,30.06,South,175,8.0,10.0,-999,-99.99,,,-99.99,,2013-02-20 20:52:00,
2013-02-20 16:01:00,51.0,-99.9,30.06,South,179,9.0,10.0,-999,-99.99,,,-99.99,,2013-02-20 21:01:00,
2013-02-20 16:11:00,52.0,-99.9,30.07,South,176,8.0,10.0,-999,-99.99,,,-99.99,,2013-02-20 21:11:00,
2013-02-20 16:21:00,52.0,-99.9,30.07,South,181,9.0,14.0,-999,-99.99,,,-99.99,,2013-02-20 21:21:00,
2013-02-20 16:32:00,52.0,-99.9,30.07,South,181,9.0,14.0,-999,-99.99,,,-99.99,,2013-02-20 21:32:00,
2013-02-20 16:42:00,52.0,-99.9,30.07,South,190,8.0,12.0,-999,-99.99,,,-99.99,,2013-02-20 21:42:00,
2013-02-20 16:52:00,52.0,-99.9,30.07,South,190,8.0,12.0,-999,-99.99,,,-99.99,,2013-02-20 21:52:00,
2013-02-20 17:02:00,52.0,-99.9,30.06,South,175,9.0,12.0,-999,-99.99,,,-99.99,,2013-02-20 22:02:00,
2013-02-20 17:11:00,52.0,-99.9,30.06,SSE,164,9.0,12.0,-999,-99.99,,,-99.99,,2013-02-20 22:11:00,
2013-02-20 17:21:00,51.0,-99.9,30.05,South,174,12.0,14.0,-999,-99.99,,,-99.99,,2013-02-20 22:21:00,
2013-02-20 17:32:00,51.0,-99.9,30.06,South,173,10.0,14.0,-999,-99.99,,,-99.99,,2013-02-20 22:32:00,
2013-02-20 17:43:00,51.0,-99.9,30.07,SSW,197,7.0,11.0,-999,-99.99,,,-99.99,,2013-02-20 22:43:00,
2013-02-20 17:52:00,51.0,-99.9,30.07,South,190,7.0,12.0,-999,-99.99,,,-99.99,,2013-02-20 22:52:00,
2013-02-20 18:01:00,51.0,-99.9,30.07,SSW,203,8.0,11.0,-999,-99.99,,,-99.99,,2013-02-20 23:01:00,
2013-02-20 18:12:00,51.0,-99.9,30.08,SSW,210,6.0,10.0,-999,-99.99,,,-99.99,,2013-02-20 23:12:00,
2013-02-20 18:22:00,51.0,-99.9,30.09,SW,216,7.0,10.0,-999,-99.99,,,-99.99,,2013-02-20 23:22:00,
2013-02-20 18:32:00,51.0,-99.9,30.09,SW,215,7.0,10.0,-999,-99.99,,,-99.99,,2013-02-20 23:32:00,
2013-02-20 18:43:00,50.0,-99.9,30.09,SSW,204,7.0,9.0,-999,-99.99,,,-99.99,,2013-02-20 23:43:00,
2013-02-20 18:53:00,50.0,-99.9,30.09,SW,217,6.0,9.0,-999,-99.99,,,-99.99,,2013-02-20 23:53:00,
2013-02-20 19:03:00,50.0,-99.9,30.09,SSW,209,6.0,9.0,-999,-99.99,,,-99.99,,2013-02-21 00:03:00,
2013-02-20 19:11:00,50.0,-99.9,30.09,SW,226,6.0,8.0,-999,-99.99,,,-99.99,,2013-02-21 00:11:00,
2013-02-20 19:22:00,50.0,-99.9,30.09,SW,223,4.0,8.0,-999,-99.99,,,-99.99,,2013-02-21 00:22:00,
2013-02-20 19:32:00,50.0,-99.9,30.10,SW,236,5.0,7.0,-999,-99.99,,,-99.99,,2013-02-21 00:32:00,
2013-02-20 19:42:00,50.0,-99.9,30.10,SW,235,5.0,8.0,-999,-99.99,,,-99.99,,2013-02-21 00:42:00,
2013-02-20 19:52:00,50.0,-99.9,30.10,SW,235,6.0,9.0,-999,-99.99,,,-99.99,,2013-02-21 00:52:00,
2013-02-20 20:01:00,50.0,-99.9,30.11,SW,236,4.0,6.0,-999,-99.99,,,-99.99,,2013-02-21 01:01:00,
2013-02-20 20:12:00,50.0,-99.9,30.11,SW,223,4.0,6.0,-999,-99.99,,,-99.99,,2013-02-21 01:12:00,
2013-02-20 20:22:00,50.0,-99.9,30.11,SW,227,6.0,8.0,-999,-99.99,,,-99.99,,2013-02-21 01:22:00,
2013-02-20 20:32:00,49.0,-99.9,30.09,SSW,193,2.0,7.0,-999,-99.99,,,-99.99,,2013-02-21 01:32:00,
2013-02-20 20:42:00,50.0,-99.9,30.10,SW,228,8.0,10.0,-999,-99.99,,,-99.99,,2013-02-21 01:42:00,
2013-02-20 20:52:00,50.0,-99.9,30.09,SW,219,5.0,10.0,-999,-99.99,,,-99.99,,2013-02-21 01:52:00,
2013-02-20 21:02:00,49.0,-99.9,30.07,SW,218,6.0,9.0,-999,-99.99,,,-99.99,,2013-02-21 02:02:00,
2013-02-20 21:11:00,49.0,-99.9,30.08,SW,227,9.0,10.0,-999,-99.99,,,-99.99,,2013-02-21 02:11:00,
2013-02-20 21:22:00,49.0,-99.9,30.08,SW,227,6.0,10.0,-999,-99.99,,,-99.99,,2013-02-21 02:22:00,
2013-02-20 21:32:00,50.0,-99.9,30.08,SW,226,8.0,9.0,-999,-99.99,,,-99.99,,2013-02-21 02:32:00,
2013-02-20 21:42:00,50.0,-99.9,30.08,SW,226,8.0,9.0,-999,-99.99,,,-99.99,,2013-02-21 02:42:00,
2013-02-20 21:52:00,50.0,-99.9,30.08,SW,226,8.0,9.0,-999,-99.99,,,-99.99,,2013-02-21 02:52:00,
2013-02-20 22:02:00,50.0,-99.9,30.09,SW,226,7.0,9.0,-999,-99.99,,,-99.99,,2013-02-21 03:02:00,
2013-02-20 22:12:00,50.0,-99.9,30.08,SW,222,4.0,9.0,-999,-99.99,,,-99.99,,2013-02-21 03:12:00,
2013-02-20 22:22:00,50.0,-99.9,30.09,WSW,239,5.0,6.0,-999,-99.99,,,-99.99,,2013-02-21 03:22:00,
2013-02-20 22:32:00,50.0,-99.9,30.09,SW,226,6.0,9.0,-999,-99.99,,,-99.99,,2013-02-21 03:32:00,
2013-02-20 22:42:00,50.0,-99.9,30.09,WSW,242,5.0,8.0,-999,-99.99,,,-99.99,,2013-02-21 03:42:00,
2013-02-20 22:52:00,50.0,-99.9,30.09,WSW,238,5.0,8.0,-999,-99.99,,,-99.99,,2013-02-21 03:52:00,
2013-02-20 23:01:00,50.0,-99.9,30.09,SW,235,3.0,6.0,-999,-99.99,,,-99.99,,2013-02-21 04:01:00,
2013-02-20 23:11:00,50.0,-99.9,30.09,ENE,65,0.0,2.0,-999,-99.99,,,-99.99,,2013-02-21 04:11:00,
2013-02-20 23:22:00,50.0,-99.9,30.09,SSW,201,2.0,3.0,-999,-99.99,,,-99.99,,2013-02-21 04:22:00,
2013-02-20 23:32:00,49.0,-99.9,30.09,SW,220,2.0,3.0,-999,-99.99,,,-99.99,,2013-02-21 04:32:00,
2013-02-20 23:36:00,49.0,-99.9,30.08,NW,321,-999.0,1.0,-999,-99.99,,,-99.99,,2013-02-21 04:36:00,
2013-02-20 23:42:00,49.0,-99.9,30.08,South,186,-999.0,2.0,-999,-99.99,,,-99.99,,2013-02-21 04:42:00,
2013-02-20 23:52:00,49.0,-99.9,30.09,South,175,0.0,1.0,-999,-99.99,,,-99.99,,2013-02-21 04:52:00,